Time,TemperatureF,DewpointF,PressureIn,WindDirection,WindDirectionDegrees,WindSpeedMPH,WindSpeedGustMPH,Humidity,HourlyPrecipIn,Conditions,Clouds,dailyrainin,SoftwareType,DateUTC
2013-06-26 00:00:00,72.6,63.5,25.41,NNW,331,15.0,26.0,73,0.00,,---,0.01,VWS V14.01,2013-06-26 04:00:00,
2013-06-26 00:01:00,72.5,63.4,25.41,NNW,336,13.0,26.0,73,0.00,,---,0.01,VWS V14.01,2013-06-26 04:01:00,
2013-06-26 00:06:00,71.8,63.5,25.41,NW,321,16.0,19.0,75,0.00,,---,0.00,VWS V14.01,2013-06-26 04:06:00,
2013-06-26 00:11:00,71.3,63.3,25.41,NW,318,13.0,19.0,76,0.00,,---,0.00,VWS V14.01,2013-06-26 04:11:00,
2013-06-26 00:16:00,71.0,63.8,25.41,NNW,334,13.0,19.0,78,0.00,,---,0.00,VWS V14.01,2013-06-26 04:16:00,
2013-06-26 00:21:00,70.7,63.5,25.41,NW,325,17.0,20.0,78,0.00,,---,0.00,VWS V14.01,2013-06-26 04:21:00,
2013-06-26 00:26:00,70.6,63.4,25.41,NW,323,18.0,21.0,78,0.00,,---,0.00,VWS V14.01,2013-06-26 04:26:00,
2013-06-26 00:31:00,70.6,63.4,25.41,NNW,333,13.0,17.0,78,0.00,,---,0.00,VWS V14.01,2013-06-26 04:31:00,
2013-06-26 00:43:00,70.6,63.4,25.41,North,349,15.0,22.0,78,0.00,,---,0.00,VWS V14.01,2013-06-26 04:43:00,
2013-06-26 00:48:00,70.6,63.4,25.41,North,355,14.0,22.0,78,0.00,,---,0.00,VWS V14.01,2013-06-26 04:48:00,
2013-06-26 00:53:00,70.4,63.6,25.41,NNW,346,13.0,22.0,79,0.00,,---,0.00,VWS V14.01,2013-06-26 04:53:00,
2013-06-26 00:58:00,70.2,63.4,25.41,NNW,348,11.0,22.0,79,0.00,,---,0.00,VWS V14.01,2013-06-26 04:58:00,
2013-06-26 01:03:00,70.0,63.2,25.41,NNW,331,11.0,15.0,79,0.00,,---,0.00,VWS V14.01,2013-06-26 05:03:00,
2013-06-26 01:08:00,69.9,63.5,25.41,NNW,340,7.0,15.0,80,0.00,,---,0.00,VWS V14.01,2013-06-26 05:08:00,
2013-06-26 01:13:00,69.9,63.5,25.41,NNW,333,6.0,15.0,80,0.00,,---,0.00,VWS V14.01,2013-06-26 05:13:00,
2013-06-26 01:18:00,69.8,63.4,25.41,NNW,346,6.0,15.0,80,0.00,,---,0.00,VWS V14.01,2013-06-26 05:18:00,
2013-06-26 01:23:00,69.7,63.3,25.41,NNW,331,12.0,15.0,80,0.00,,---,0.00,VWS V14.01,2013-06-26 05:23:00,
2013-06-26 01:28:00,69.7,63.3,25.41,NNW,347,5.0,15.0,80,0.00,,---,0.00,VWS V14.01,2013-06-26 05:28:00,
2013-06-26 01:32:00,69.6,63.2,25.41,North,355,6.0,12.0,80,0.00,,---,0.00,VWS V14.01,2013-06-26 05:32:00,
2013-06-26 01:37:00,69.7,63.3,25.41,NW,318,5.0,12.0,80,0.00,,---,0.00,VWS V14.01,2013-06-26 05:37:00,
2013-06-26 01:42:00,69.7,63.3,25.41,NNW,329,6.0,12.0,80,0.00,,---,0.00,VWS V14.01,2013-06-26 05:42:00,
2013-06-26 01:47:00,69.7,63.3,25.41,NW,310,6.0,12.0,80,0.00,,---,0.00,VWS V14.01,2013-06-26 05:47:00,
2013-06-26 01:52:00,69.7,63.3,25.41,NW,309,5.0,12.0,80,0.00,,---,0.00,VWS V14.01,2013-06-26 05:52:00,
2013-06-26 01:57:00,69.6,63.2,25.41,NW,321,5.0,12.0,80,0.00,,---,0.00,VWS V14.01,2013-06-26 05:57:00,
2013-06-26 02:02:00,69.4,63.3,25.41,NNW,336,0.0,8.0,81,0.01,,---,0.01,VWS V14.01,2013-06-26 06:02:00,
2013-06-26 02:07:00,69.2,63.5,25.41,NNW,336,3.0,8.0,82,0.01,,---,0.01,VWS V14.01,2013-06-26 06:07:00,
2013-06-26 02:12:00,68.9,63.5,25.41,NNW,338,1.0,8.0,83,0.02,,---,0.02,VWS V14.01,2013-06-26 06:12:00,
2013-06-26 02:17:00,68.5,63.5,25.41,NNE,16,0.0,8.0,84,0.02,,---,0.02,VWS V14.01,2013-06-26 06:17:00,
2013-06-26 02:22:00,68.3,63.6,25.41,NNE,16,0.0,8.0,85,0.02,,---,0.02,VWS V14.01,2013-06-26 06:22:00,
2013-06-26 02:27:00,68.1,63.4,25.41,NNE,17,0.0,8.0,85,0.02,,---,0.02,VWS V14.01,2013-06-26 06:27:00,
2013-06-26 02:32:00,67.9,63.6,25.41,NNE,17,0.0,1.0,86,0.03,,---,0.03,VWS V14.01,2013-06-26 06:32:00,
2013-06-26 02:37:00,67.7,63.4,25.41,NNE,17,2.0,3.0,86,0.03,,---,0.03,VWS V14.01,2013-06-26 06:37:00,
2013-06-26 02:42:00,67.3,63.3,25.41,NNE,17,0.0,4.0,87,0.03,,---,0.03,VWS V14.01,2013-06-26 06:42:00,
2013-06-26 02:47:00,67.2,63.2,25.41,NNE,17,0.0,4.0,87,0.03,,---,0.03,VWS V14.01,2013-06-26 06:47:00,
2013-06-26 02:52:00,67.1,63.4,25.41,NE,40,0.0,4.0,88,0.03,,---,0.03,VWS V14.01,2013-06-26 06:52:00,
2013-06-26 02:57:00,67.1,63.4,25.41,NE,40,0.0,4.0,88,0.03,,---,0.03,VWS V14.01,2013-06-26 06:57:00,
2013-06-26 03:02:00,67.0,63.7,25.41,NE,49,2.0,3.0,89,0.02,,---,0.03,VWS V14.01,2013-06-26 07:02:00,
2013-06-26 03:07:00,66.9,63.6,25.51,SE,146,3.0,4.0,89,0.02,,---,0.03,VWS V14.01,2013-06-26 07:07:00,
2013-06-26 03:12:00,66.8,63.8,18.96,SE,146,0.0,4.0,90,0.02,,---,0.03,VWS V14.01,2013-06-26 07:12:00,
2013-06-26 03:17:00,66.7,63.7,22.23,SE,146,0.0,4.0,90,0.02,,---,0.03,VWS V14.01,2013-06-26 07:17:00,
2013-06-26 03:22:00,66.7,63.7,22.23,SE,146,4.0,5.0,90,0.02,,---,0.03,VWS V14.01,2013-06-26 07:22:00,
2013-06-26 03:27:00,66.8,63.8,22.23,SE,145,0.0,5.0,90,0.02,,---,0.03,VWS V14.01,2013-06-26 07:27:00,
2013-06-26 03:32:00,66.8,64.1,22.23,SE,146,0.0,3.0,91,0.00,,---,0.03,VWS V14.01,2013-06-26 07:32:00,
2013-06-26 03:37:00,66.8,64.1,18.85,SE,145,4.0,4.0,91,0.00,,---,0.03,VWS V14.01,2013-06-26 07:37:00,
2013-06-26 03:42:00,66.9,64.2,18.85,SSE,149,5.0,6.0,91,0.00,,---,0.03,VWS V14.01,2013-06-26 07:42:00,
2013-06-26 03:47:00,67.0,64.3,18.85,South,172,3.0,6.0,91,0.00,,---,0.03,VWS V14.01,2013-06-26 07:47:00,
2013-06-26 03:52:00,67.0,64.6,18.85,SSE,165,7.0,8.0,92,0.00,,---,0.03,VWS V14.01,2013-06-26 07:52:00,
2013-06-26 03:57:00,67.1,64.7,18.85,SSE,148,7.0,10.0,92,0.00,,---,0.03,VWS V14.01,2013-06-26 07:57:00,
2013-06-26 04:02:00,67.1,64.7,18.85,SSE,166,4.0,7.0,92,0.00,,---,0.03,VWS V14.01,2013-06-26 08:02:00,
2013-06-26 04:07:00,67.1,64.7,18.85,South,173,4.0,9.0,92,0.00,,---,0.03,VWS V14.01,2013-06-26 08:07:00,
2013-06-26 04:12:00,67.1,64.7,18.85,SSE,159,2.0,11.0,92,0.00,,---,0.03,VWS V14.01,2013-06-26 08:12:00,
2013-06-26 04:17:00,67.1,64.7,18.85,SSE,167,6.0,11.0,92,0.00,,---,0.03,VWS V14.01,2013-06-26 08:17:00,
2013-06-26 04:22:00,67.1,64.7,18.85,SSE,161,5.0,11.0,92,0.00,,---,0.03,VWS V14.01,2013-06-26 08:22:00,
2013-06-26 04:27:00,67.0,64.6,18.85,SSE,167,5.0,11.0,92,0.00,,---,0.03,VWS V14.01,2013-06-26 08:27:00,
2013-06-26 04:32:00,67.1,64.7,18.85,South,173,8.0,10.0,92,0.00,,---,0.03,VWS V14.01,2013-06-26 08:32:00,
2013-06-26 04:37:00,67.1,64.7,18.85,South,172,6.0,11.0,92,0.00,,---,0.03,VWS V14.01,2013-06-26 08:37:00,
2013-06-26 04:42:00,67.0,64.6,18.85,South,175,1.0,11.0,92,0.00,,---,0.03,VWS V14.01,2013-06-26 08:42:00,
2013-06-26 04:47:00,67.0,64.6,18.85,South,172,5.0,12.0,92,0.00,,---,0.03,VWS V14.01,2013-06-26 08:47:00,
2013-06-26 04:52:00,67.0,64.6,18.85,SSE,156,6.0,12.0,92,0.00,,---,0.03,VWS V14.01,2013-06-26 08:52:00,
2013-06-26 04:57:00,67.0,64.6,18.85,SSE,162,7.0,12.0,92,0.00,,---,0.03,VWS V14.01,2013-06-26 08:57:00,
2013-06-26 05:02:00,67.0,64.6,18.85,South,179,5.0,11.0,92,0.00,,---,0.03,VWS V14.01,2013-06-26 09:02:00,
2013-06-26 05:07:00,67.0,64.6,18.85,South,188,9.0,13.0,92,0.00,,---,0.03,VWS V14.01,2013-06-26 09:07:00,
2013-06-26 05:12:00,66.9,64.5,18.85,South,179,8.0,13.0,92,0.00,,---,0.03,VWS V14.01,2013-06-26 09:12:00,
2013-06-26 05:17:00,66.9,64.5,18.85,South,185,8.0,13.0,92,0.00,,---,0.03,VWS V14.01,2013-06-26 09:17:00,
2013-06-26 05:22:00,66.9,64.5,18.85,SSE,155,6.0,13.0,92,0.00,,---,0.03,VWS V14.01,2013-06-26 09:22:00,
2013-06-26 05:27:00,66.9,64.5,18.85,SSE,156,5.0,13.0,92,0.00,,---,0.03,VWS V14.01,2013-06-26 09:27:00,
2013-06-26 05:32:00,66.9,64.5,18.96,SE,145,4.0,7.0,92,0.00,,---,0.03,VWS V14.01,2013-06-26 09:32:00,
2013-06-26 05:37:00,66.8,64.4,18.96,South,175,9.0,10.0,92,0.00,,---,0.03,VWS V14.01,2013-06-26 09:37:00,
2013-06-26 05:42:00,66.8,64.4,18.85,South,190,5.0,10.0,92,0.00,,---,0.03,VWS V14.01,2013-06-26 09:42:00,
2013-06-26 05:47:00,66.8,64.4,18.85,SSE,168,0.0,11.0,92,0.00,,---,0.03,VWS V14.01,2013-06-26 09:47:00,
2013-06-26 05:52:00,66.8,64.4,18.85,South,175,5.0,11.0,92,0.00,,---,0.03,VWS V14.01,2013-06-26 09:52:00,
2013-06-26 05:57:00,66.8,64.4,18.85,SSE,164,6.0,11.0,92,0.00,,---,0.03,VWS V14.01,2013-06-26 09:57:00,
2013-06-26 06:02:00,66.7,64.3,18.85,SE,130,5.0,7.0,92,0.00,,---,0.03,VWS V14.01,2013-06-26 10:02:00,
2013-06-26 06:07:00,66.7,64.3,18.85,South,178,3.0,9.0,92,0.00,,---,0.03,VWS V14.01,2013-06-26 10:07:00,
2013-06-26 06:12:00,66.7,64.3,18.85,South,178,6.0,10.0,92,0.00,,---,0.03,VWS V14.01,2013-06-26 10:12:00,
2013-06-26 06:17:00,66.7,64.3,18.85,South,173,5.0,13.0,92,0.00,,---,0.03,VWS V14.01,2013-06-26 10:17:00,
2013-06-26 06:22:00,66.6,64.2,18.85,South,169,8.0,13.0,92,0.00,,---,0.03,VWS V14.01,2013-06-26 10:22:00,
2013-06-26 06:27:00,66.6,64.2,18.85,SSE,166,5.0,13.0,92,0.00,,---,0.03,VWS V14.01,2013-06-26 10:27:00,
2013-06-26 06:32:00,66.6,64.2,18.85,SSE,165,7.0,11.0,92,0.00,,---,0.03,VWS V14.01,2013-06-26 10:32:00,
2013-06-26 06:37:00,66.7,64.3,18.85,SSE,152,11.0,11.0,92,0.00,,---,0.03,VWS V14.01,2013-06-26 10:37:00,
2013-06-26 06:42:00,66.7,64.3,18.85,SSE,153,4.0,12.0,92,0.00,,---,0.03,VWS V14.01,2013-06-26 10:42:00,
2013-06-26 06:47:00,66.7,64.3,18.85,South,169,5.0,12.0,92,0.00,,---,0.03,VWS V14.01,2013-06-26 10:47:00,
2013-06-26 06:52:00,66.8,64.4,17.27,SSE,164,7.0,12.0,92,0.00,,---,0.03,VWS V14.01,2013-06-26 10:52:00,
2013-06-26 06:57:00,66.8,64.4,17.27,SSE,150,7.0,13.0,92,0.00,,---,0.03,VWS V14.01,2013-06-26 10:57:00,
2013-06-26 07:02:00,66.9,64.5,18.85,South,184,11.0,12.0,92,0.00,,---,0.03,VWS V14.01,2013-06-26 11:02:00,
2013-06-26 07:07:00,67.0,64.6,18.85,SSE,161,9.0,12.0,92,0.00,,---,0.03,VWS V14.01,2013-06-26 11:07:00,
2013-06-26 07:12:00,67.2,64.8,18.85,SSE,160,8.0,12.0,92,0.00,,---,0.03,VWS V14.01,2013-06-26 11:12:00,
2013-06-26 07:17:00,67.3,64.9,18.85,SE,145,3.0,12.0,92,0.00,,---,0.03,VWS V14.01,2013-06-26 11:17:00,
2013-06-26 07:22:00,67.6,65.2,18.85,SSE,161,8.0,12.0,92,0.00,,---,0.03,VWS V14.01,2013-06-26 11:22:00,
2013-06-26 07:27:00,67.7,65.0,18.85,SE,139,1.0,12.0,91,0.00,,---,0.03,VWS V14.01,2013-06-26 11:27:00,
2013-06-26 07:32:00,67.7,65.0,18.85,SE,142,5.0,10.0,91,0.00,,---,0.03,VWS V14.01,2013-06-26 11:32:00,
2013-06-26 07:37:00,67.9,65.2,18.85,SE,138,6.0,12.0,91,0.00,,---,0.03,VWS V14.01,2013-06-26 11:37:00,
2013-06-26 07:42:00,68.0,65.3,25.41,SSE,165,9.0,12.0,91,0.00,,---,0.03,VWS V14.01,2013-06-26 11:42:00,
2013-06-26 07:47:00,68.2,65.2,25.41,SSE,161,6.0,12.0,90,0.00,,---,0.03,VWS V14.01,2013-06-26 11:47:00,
2013-06-26 07:52:00,68.5,65.5,25.41,South,179,6.0,12.0,90,0.00,,---,0.03,VWS V14.01,2013-06-26 11:52:00,
2013-06-26 07:57:00,68.9,65.5,25.41,South,172,9.0,12.0,89,0.00,,---,0.03,VWS V14.01,2013-06-26 11:57:00,
2013-06-26 08:02:00,69.4,66.0,25.41,SW,218,3.0,11.0,89,0.00,,---,0.03,VWS V14.01,2013-06-26 12:02:00,
2013-06-26 08:07:00,69.5,65.8,25.41,SSE,163,5.0,12.0,88,0.00,,---,0.03,VWS V14.01,2013-06-26 12:07:00,
2013-06-26 08:12:00,69.6,65.6,25.41,SSW,196,3.0,12.0,87,0.00,,---,0.03,VWS V14.01,2013-06-26 12:12:00,
2013-06-26 08:17:00,69.6,65.6,25.41,SSE,163,2.0,12.0,87,0.00,,---,0.03,VWS V14.01,2013-06-26 12:17:00,
2013-06-26 08:22:00,69.6,65.6,25.41,SSE,166,7.0,12.0,87,0.00,,---,0.03,VWS V14.01,2013-06-26 12:22:00,
2013-06-26 08:27:00,69.6,65.6,25.41,South,174,4.0,12.0,87,0.00,,---,0.03,VWS V14.01,2013-06-26 12:27:00,
2013-06-26 08:32:00,69.7,65.7,25.41,SSW,210,5.0,7.0,87,0.00,,---,0.03,VWS V14.01,2013-06-26 12:32:00,
2013-06-26 08:37:00,70.0,66.0,25.41,SSE,152,2.0,10.0,87,0.00,,---,0.03,VWS V14.01,2013-06-26 12:37:00,
2013-06-26 08:42:00,70.2,66.2,25.41,SSE,165,5.0,10.0,87,0.00,,---,0.03,VWS V14.01,2013-06-26 12:42:00,
2013-06-26 08:47:00,70.5,66.4,25.41,SW,217,4.0,12.0,87,0.00,,---,0.03,VWS V14.01,2013-06-26 12:47:00,
2013-06-26 08:52:00,70.8,66.4,25.41,South,171,3.0,13.0,86,0.00,,---,0.03,VWS V14.01,2013-06-26 12:52:00,
2013-06-26 08:57:00,71.1,66.7,25.41,SSE,163,9.0,14.0,86,0.00,,---,0.03,VWS V14.01,2013-06-26 12:57:00,
2013-06-26 09:02:00,71.3,66.9,25.41,SSE,161,5.0,10.0,86,0.00,,---,0.03,VWS V14.01,2013-06-26 13:02:00,
2013-06-26 09:07:00,71.8,67.4,25.41,South,190,8.0,10.0,86,0.00,,---,0.03,VWS V14.01,2013-06-26 13:07:00,
2013-06-26 09:12:00,72.4,67.6,22.13,South,176,6.0,10.0,85,0.00,,---,0.03,VWS V14.01,2013-06-26 13:12:00,
2013-06-26 09:17:00,72.9,67.8,25.41,South,173,6.0,10.0,84,0.00,,---,0.03,VWS V14.01,2013-06-26 13:17:00,
2013-06-26 09:22:00,73.3,67.8,25.41,SSW,193,4.0,10.0,83,0.00,,---,0.03,VWS V14.01,2013-06-26 13:22:00,
2013-06-26 09:27:00,73.4,67.6,25.41,SSE,153,3.0,10.0,82,0.00,,---,0.03,VWS V14.01,2013-06-26 13:27:00,
2013-06-26 09:32:00,74.0,68.2,25.41,SSE,161,0.0,4.0,82,0.00,,---,0.03,VWS V14.01,2013-06-26 13:32:00,
2013-06-26 09:37:00,74.7,68.5,25.41,South,172,4.0,10.0,81,0.00,,---,0.03,VWS V14.01,2013-06-26 13:37:00,
2013-06-26 09:42:00,75.0,68.4,25.41,SSW,210,3.0,10.0,80,0.00,,---,0.03,VWS V14.01,2013-06-26 13:42:00,
2013-06-26 09:47:00,75.3,68.3,25.41,SW,217,3.0,10.0,79,0.00,,---,0.03,VWS V14.01,2013-06-26 13:47:00,
2013-06-26 09:52:00,75.7,68.4,17.27,West,268,1.0,14.0,78,0.00,,---,0.03,VWS V14.01,2013-06-26 13:52:00,
2013-06-26 09:57:00,75.9,67.8,17.27,North,360,1.0,14.0,76,0.00,,---,0.03,VWS V14.01,2013-06-26 13:57:00,
2013-06-26 10:02:00,76.2,68.5,17.27,South,183,7.0,10.0,77,0.00,,---,0.03,VWS V14.01,2013-06-26 14:02:00,
2013-06-26 10:07:00,76.1,68.0,18.85,SSE,165,2.0,10.0,76,0.00,,---,0.03,VWS V14.01,2013-06-26 14:07:00,
2013-06-26 10:12:00,76.2,68.5,18.85,WSW,237,3.0,10.0,77,0.00,,---,0.03,VWS V14.01,2013-06-26 14:12:00,
2013-06-26 10:17:00,76.5,68.4,18.85,North,350,1.0,10.0,76,0.00,,---,0.03,VWS V14.01,2013-06-26 14:17:00,
2013-06-26 10:22:00,76.6,68.1,18.85,WNW,302,1.0,13.0,75,0.00,,---,0.03,VWS V14.01,2013-06-26 14:22:00,
2013-06-26 10:27:00,76.6,68.1,18.85,NW,307,1.0,13.0,75,0.00,,---,0.03,VWS V14.01,2013-06-26 14:27:00,
2013-06-26 10:32:00,76.7,67.8,18.85,NNE,25,1.0,4.0,74,0.00,,---,0.03,VWS V14.01,2013-06-26 14:32:00,
2013-06-26 10:37:00,77.0,68.1,18.85,NE,53,1.0,7.0,74,0.00,,---,0.03,VWS V14.01,2013-06-26 14:37:00,
2013-06-26 10:42:00,77.3,68.8,18.85,SW,236,0.0,7.0,75,0.00,,---,0.03,VWS V14.01,2013-06-26 14:42:00,
2013-06-26 10:47:00,77.6,68.3,18.85,WSW,240,0.0,7.0,73,0.00,,---,0.03,VWS V14.01,2013-06-26 14:47:00,
2013-06-26 10:52:00,78.0,68.7,18.85,WNW,291,2.0,10.0,73,0.00,,---,0.03,VWS V14.01,2013-06-26 14:52:00,
2013-06-26 10:57:00,78.7,69.7,18.85,SSE,148,2.0,10.0,74,0.00,,---,0.03,VWS V14.01,2013-06-26 14:57:00,
2013-06-26 11:02:00,78.6,68.8,18.85,WNW,299,6.0,6.0,72,0.00,,---,0.03,VWS V14.01,2013-06-26 15:02:00,
2013-06-26 11:07:00,78.6,68.8,18.85,NW,318,6.0,18.0,72,0.00,,---,0.03,VWS V14.01,2013-06-26 15:07:00,
2013-06-26 11:12:00,79.3,69.9,18.85,North,350,5.0,18.0,73,0.00,,---,0.03,VWS V14.01,2013-06-26 15:12:00,
2013-06-26 11:17:00,79.7,68.6,18.85,North,350,4.0,18.0,69,0.00,,---,0.03,VWS V14.01,2013-06-26 15:17:00,
2013-06-26 11:22:00,79.5,68.4,22.13,NW,322,0.0,18.0,69,0.00,,---,0.03,VWS V14.01,2013-06-26 15:22:00,
2013-06-26 11:27:00,79.8,68.3,22.13,North,355,3.0,18.0,68,0.00,,---,0.03,VWS V14.01,2013-06-26 15:27:00,
2013-06-26 11:32:00,79.9,68.0,22.13,West,263,7.0,13.0,67,0.00,,---,0.03,VWS V14.01,2013-06-26 15:32:00,
2013-06-26 11:37:00,80.4,68.4,25.41,NW,315,4.0,13.0,67,0.00,,---,0.03,VWS V14.01,2013-06-26 15:37:00,
2013-06-26 11:42:00,80.9,68.0,25.41,WNW,296,3.0,13.0,65,0.00,,---,0.03,VWS V14.01,2013-06-26 15:42:00,
2013-06-26 11:47:00,81.0,68.1,25.41,NW,306,8.0,13.0,65,0.00,,---,0.03,VWS V14.01,2013-06-26 15:47:00,
2013-06-26 11:52:00,81.3,68.0,25.41,West,280,5.0,13.0,64,0.00,,---,0.03,VWS V14.01,2013-06-26 15:52:00,
2013-06-26 11:57:00,81.3,67.5,25.41,NNW,337,11.0,13.0,63,0.00,,---,0.03,VWS V14.01,2013-06-26 15:57:00,
2013-06-26 12:02:00,81.1,68.7,25.41,NNW,331,11.0,11.0,66,0.00,,---,0.03,VWS V14.01,2013-06-26 16:02:00,
2013-06-26 12:07:00,81.3,68.4,25.41,NW,326,5.0,14.0,65,0.00,,---,0.03,VWS V14.01,2013-06-26 16:07:00,
2013-06-26 12:12:00,81.5,66.8,25.41,NW,313,2.0,14.0,61,0.00,,---,0.03,VWS V14.01,2013-06-26 16:12:00,
2013-06-26 12:17:00,81.4,67.1,25.41,NW,310,10.0,14.0,62,0.00,,---,0.03,VWS V14.01,2013-06-26 16:17:00,
2013-06-26 12:22:00,81.4,68.1,25.41,NW,307,9.0,15.0,64,0.00,,---,0.03,VWS V14.01,2013-06-26 16:22:00,
2013-06-26 12:27:00,81.5,68.6,25.41,SW,234,2.0,15.0,65,0.00,,---,0.03,VWS V14.01,2013-06-26 16:27:00,
2013-06-26 12:32:00,81.3,68.4,25.41,WNW,289,15.0,17.0,65,0.00,,---,0.03,VWS V14.01,2013-06-26 16:32:00,
2013-06-26 12:37:00,81.3,67.5,25.41,NW,321,4.0,17.0,63,0.00,,---,0.03,VWS V14.01,2013-06-26 16:37:00,
2013-06-26 12:42:00,81.5,68.2,25.41,NW,304,3.0,17.0,64,0.00,,---,0.03,VWS V14.01,2013-06-26 16:42:00,
2013-06-26 12:47:00,81.3,67.5,25.41,SE,141,0.0,17.0,63,0.00,,---,0.03,VWS V14.01,2013-06-26 16:47:00,
2013-06-26 12:52:00,80.9,68.0,25.41,NW,305,0.0,17.0,65,0.00,,---,0.03,VWS V14.01,2013-06-26 16:52:00,
2013-06-26 12:57:00,80.9,68.0,25.41,WNW,284,10.0,17.0,65,0.00,,---,0.03,VWS V14.01,2013-06-26 16:57:00,
2013-06-26 13:02:00,80.9,67.6,25.41,NW,315,1.0,4.0,64,0.00,,---,0.03,VWS V14.01,2013-06-26 17:02:00,
2013-06-26 13:07:00,80.8,66.6,25.41,West,264,1.0,10.0,62,0.00,,---,0.03,VWS V14.01,2013-06-26 17:07:00,
2013-06-26 13:12:00,80.8,67.0,25.41,WSW,257,1.0,10.0,63,0.00,,---,0.03,VWS V14.01,2013-06-26 17:12:00,
2013-06-26 13:17:00,80.7,66.9,25.41,NW,309,5.0,10.0,63,0.00,,---,0.03,VWS V14.01,2013-06-26 17:17:00,
2013-06-26 13:22:00,80.9,67.1,25.41,WNW,292,1.0,10.0,63,0.00,,---,0.03,VWS V14.01,2013-06-26 17:22:00,
2013-06-26 13:27:00,80.9,67.1,25.41,SE,143,4.0,10.0,63,0.00,,---,0.03,VWS V14.01,2013-06-26 17:27:00,
2013-06-26 13:32:00,80.6,65.9,25.41,SE,146,2.0,2.0,61,0.00,,---,0.03,VWS V14.01,2013-06-26 17:32:00,
2013-06-26 13:37:00,80.7,66.9,25.41,SSE,166,0.0,4.0,63,0.00,,---,0.03,VWS V14.01,2013-06-26 17:37:00,
2013-06-26 13:42:00,81.0,67.2,25.41,SSW,195,0.0,4.0,63,0.00,,---,0.03,VWS V14.01,2013-06-26 17:42:00,
2013-06-26 13:47:00,81.3,68.0,25.41,West,274,0.0,4.0,64,0.00,,---,0.03,VWS V14.01,2013-06-26 17:47:00,
2013-06-26 13:52:00,81.6,68.2,25.41,SSW,204,0.0,5.0,64,0.00,,---,0.03,VWS V14.01,2013-06-26 17:52:00,
2013-06-26 13:57:00,81.3,68.0,25.41,SE,146,2.0,5.0,64,0.00,,---,0.03,VWS V14.01,2013-06-26 17:57:00,
2013-06-26 14:02:00,81.2,68.3,25.41,SSE,152,2.0,4.0,65,0.00,,---,0.03,VWS V14.01,2013-06-26 18:02:00,
2013-06-26 14:07:00,81.5,69.1,25.41,SSE,152,4.0,7.0,66,0.00,,---,0.03,VWS V14.01,2013-06-26 18:07:00,
2013-06-26 14:12:00,81.6,69.2,25.41,SW,214,2.0,7.0,66,0.00,,---,0.03,VWS V14.01,2013-06-26 18:12:00,
2013-06-26 14:17:00,81.6,68.7,25.41,SSW,200,1.0,8.0,65,0.00,,---,0.03,VWS V14.01,2013-06-26 18:17:00,
2013-06-26 14:22:00,81.9,69.4,25.41,SW,214,3.0,8.0,66,0.00,,---,0.03,VWS V14.01,2013-06-26 18:22:00,
2013-06-26 14:27:00,82.1,70.1,25.41,SSE,150,1.0,8.0,67,0.00,,---,0.03,VWS V14.01,2013-06-26 18:27:00,
2013-06-26 14:32:00,82.2,70.2,25.41,SE,132,7.0,10.0,67,0.00,,---,0.03,VWS V14.01,2013-06-26 18:32:00,
2013-06-26 14:37:00,82.1,70.5,25.41,ESE,111,8.0,10.0,68,0.00,,---,0.03,VWS V14.01,2013-06-26 18:37:00,
2013-06-26 14:42:00,82.4,71.2,25.41,South,178,4.0,11.0,69,0.00,,---,0.03,VWS V14.01,2013-06-26 18:42:00,
2013-06-26 14:47:00,82.9,71.3,25.41,WSW,254,1.0,11.0,68,0.00,,---,0.03,VWS V14.01,2013-06-26 18:47:00,
2013-06-26 14:52:00,83.4,70.9,25.41,South,175,9.0,11.0,66,0.00,,---,0.03,VWS V14.01,2013-06-26 18:52:00,
2013-06-26 14:57:00,83.4,70.9,25.41,SE,136,5.0,11.0,66,0.00,,---,0.03,VWS V14.01,2013-06-26 18:57:00,
2013-06-26 15:02:00,83.9,71.3,25.41,SSE,151,11.0,11.0,66,0.00,,---,0.03,VWS V14.01,2013-06-26 19:02:00,
2013-06-26 15:07:00,83.4,70.9,25.41,WSW,241,9.0,12.0,66,0.00,,---,0.03,VWS V14.01,2013-06-26 19:07:00,
2013-06-26 15:12:00,83.6,71.9,25.41,SSE,150,12.0,12.0,68,0.00,,---,0.03,VWS V14.01,2013-06-26 19:12:00,
2013-06-26 15:17:00,83.5,71.4,25.41,SSE,166,2.0,13.0,67,0.00,,---,0.03,VWS V14.01,2013-06-26 19:17:00,
2013-06-26 15:22:00,83.2,70.7,25.41,South,187,3.0,14.0,66,0.00,,---,0.03,VWS V14.01,2013-06-26 19:22:00,
2013-06-26 15:27:00,83.4,71.3,25.41,SE,130,4.0,14.0,67,0.00,,---,0.03,VWS V14.01,2013-06-26 19:27:00,
2013-06-26 15:32:00,83.6,72.8,25.41,SE,145,7.0,8.0,70,0.00,,---,0.03,VWS V14.01,2013-06-26 19:32:00,
2013-06-26 15:37:00,83.6,72.4,25.41,SSE,153,9.0,13.0,69,0.00,,---,0.03,VWS V14.01,2013-06-26 19:37:00,
2013-06-26 15:42:00,83.9,71.8,25.41,SE,141,9.0,13.0,67,0.00,,---,0.03,VWS V14.01,2013-06-26 19:42:00,
2013-06-26 15:47:00,83.8,71.7,25.41,South,187,5.0,13.0,67,0.00,,---,0.03,VWS V14.01,2013-06-26 19:47:00,
2013-06-26 15:52:00,83.9,71.8,25.41,SSW,195,5.0,13.0,67,0.00,,---,0.03,VWS V14.01,2013-06-26 19:52:00,
2013-06-26 15:57:00,84.2,71.6,25.41,SSE,149,6.0,13.0,66,0.00,,---,0.03,VWS V14.01,2013-06-26 19:57:00,
2013-06-26 16:02:00,84.6,72.0,25.41,SE,128,12.0,15.0,66,0.00,,---,0.03,VWS V14.01,2013-06-26 20:02:00,
2013-06-26 16:07:00,84.5,71.9,25.41,SSE,155,4.0,15.0,66,0.00,,---,0.03,VWS V14.01,2013-06-26 20:07:00,
2013-06-26 16:12:00,84.6,72.0,25.41,SSE,150,6.0,15.0,66,0.00,,---,0.03,VWS V14.01,2013-06-26 20:12:00,
2013-06-26 16:17:00,84.8,72.2,25.41,SSW,194,12.0,15.0,66,0.00,,---,0.03,VWS V14.01,2013-06-26 20:17:00,
2013-06-26 16:22:00,85.1,72.5,25.41,SE,140,9.0,15.0,66,0.00,,---,0.03,VWS V14.01,2013-06-26 20:22:00,
2013-06-26 16:27:00,85.1,72.9,25.41,ESE,119,11.0,15.0,67,0.00,,---,0.03,VWS V14.01,2013-06-26 20:27:00,
2013-06-26 16:32:00,84.7,72.1,25.41,SE,138,6.0,9.0,66,0.00,,---,0.03,VWS V14.01,2013-06-26 20:32:00,
2013-06-26 16:37:00,84.8,72.2,25.41,South,171,6.0,11.0,66,0.00,,---,0.03,VWS V14.01,2013-06-26 20:37:00,
2013-06-26 16:42:00,84.7,72.5,25.41,ESE,121,5.0,11.0,67,0.00,,---,0.03,VWS V14.01,2013-06-26 20:42:00,
2013-06-26 16:47:00,84.1,72.0,25.41,ESE,122,9.0,11.0,67,0.00,,---,0.03,VWS V14.01,2013-06-26 20:47:00,
2013-06-26 16:52:00,83.6,71.1,25.41,SSE,159,5.0,11.0,66,0.00,,---,0.03,VWS V14.01,2013-06-26 20:52:00,
2013-06-26 16:57:00,83.1,71.4,25.41,SSE,159,7.0,11.0,68,0.00,,---,0.03,VWS V14.01,2013-06-26 20:57:00,
2013-06-26 17:02:00,82.2,70.6,25.41,SSE,152,9.0,10.0,68,0.00,,---,0.03,VWS V14.01,2013-06-26 21:02:00,
2013-06-26 17:07:00,78.8,67.4,25.41,WNW,293,11.0,16.0,68,0.00,,---,0.03,VWS V14.01,2013-06-26 21:07:00,
2013-06-26 17:12:00,75.7,65.6,25.41,West,272,12.0,25.0,71,0.00,,---,0.03,VWS V14.01,2013-06-26 21:12:00,
2013-06-26 17:17:00,73.6,64.4,25.41,NNW,328,0.0,25.0,73,0.01,,---,0.04,VWS V14.01,2013-06-26 21:17:00,
2013-06-26 17:22:00,72.4,64.0,25.41,SSE,153,3.0,25.0,75,0.03,,---,0.06,VWS V14.01,2013-06-26 21:22:00,
2013-06-26 17:27:00,71.7,64.1,25.41,SSE,160,9.0,25.0,77,0.05,,---,0.08,VWS V14.01,2013-06-26 21:27:00,
2013-06-26 17:32:00,71.2,65.4,25.41,South,180,10.0,11.0,82,0.05,,---,0.08,VWS V14.01,2013-06-26 21:32:00,
2013-06-26 17:37:00,70.8,66.1,25.41,SE,138,12.0,22.0,85,0.05,,---,0.08,VWS V14.01,2013-06-26 21:37:00,
2013-06-26 17:42:00,70.7,66.3,25.41,SSE,153,5.0,22.0,86,0.05,,---,0.08,VWS V14.01,2013-06-26 21:42:00,
2013-06-26 17:47:00,70.7,66.7,25.41,SE,141,5.0,22.0,87,0.05,,---,0.08,VWS V14.01,2013-06-26 21:47:00,
2013-06-26 17:52:00,70.8,67.1,25.41,SSE,152,3.0,22.0,88,0.06,,---,0.09,VWS V14.01,2013-06-26 21:52:00,
2013-06-26 17:57:00,70.7,67.0,25.41,SE,128,7.0,22.0,88,0.06,,---,0.09,VWS V14.01,2013-06-26 21:57:00,
2013-06-26 18:02:00,70.7,67.3,25.41,SE,133,4.0,7.0,89,0.06,,---,0.09,VWS V14.01,2013-06-26 22:02:00,
2013-06-26 18:07:00,70.7,67.6,25.41,SE,134,11.0,11.0,90,0.06,,---,0.09,VWS V14.01,2013-06-26 22:07:00,
2013-06-26 18:12:00,70.4,67.3,25.41,SE,134,7.0,11.0,90,0.06,,---,0.09,VWS V14.01,2013-06-26 22:12:00,
2013-06-26 18:17:00,70.2,67.1,25.41,SE,133,1.0,11.0,90,0.06,,---,0.09,VWS V14.01,2013-06-26 22:17:00,
2013-06-26 18:22:00,70.1,67.0,25.41,SE,130,3.0,11.0,90,0.07,,---,0.10,VWS V14.01,2013-06-26 22:22:00,
2013-06-26 18:27:00,70.0,66.9,25.41,SE,130,3.0,11.0,90,0.07,,---,0.10,VWS V14.01,2013-06-26 22:27:00,
2013-06-26 18:32:00,70.1,67.0,25.41,SE,126,4.0,5.0,90,0.02,,---,0.10,VWS V14.01,2013-06-26 22:32:00,
2013-06-26 18:37:00,70.1,67.4,25.41,ESE,115,3.0,6.0,91,0.02,,---,0.10,VWS V14.01,2013-06-26 22:37:00,
2013-06-26 18:42:00,70.2,67.4,25.41,SE,126,7.0,7.0,91,0.02,,---,0.10,VWS V14.01,2013-06-26 22:42:00,
2013-06-26 18:47:00,70.4,67.7,25.41,SE,134,2.0,7.0,91,0.02,,---,0.10,VWS V14.01,2013-06-26 22:47:00,
2013-06-26 18:52:00,70.6,67.8,25.41,SE,146,4.0,7.0,91,0.02,,---,0.10,VWS V14.01,2013-06-26 22:52:00,
2013-06-26 18:57:00,70.8,68.1,25.41,SSE,156,2.0,7.0,91,0.02,,---,0.10,VWS V14.01,2013-06-26 22:57:00,
2013-06-26 19:02:00,71.1,68.3,25.41,SSE,156,1.0,3.0,91,0.01,,---,0.10,VWS V14.01,2013-06-26 23:02:00,
2013-06-26 19:07:00,71.5,68.7,25.41,SSE,156,4.0,5.0,91,0.01,,---,0.10,VWS V14.01,2013-06-26 23:07:00,
2013-06-26 19:12:00,71.7,68.6,25.41,SE,136,3.0,6.0,90,0.01,,---,0.10,VWS V14.01,2013-06-26 23:12:00,
2013-06-26 19:17:00,71.9,68.5,25.41,ESE,121,6.0,9.0,89,0.01,,---,0.10,VWS V14.01,2013-06-26 23:17:00,
2013-06-26 19:22:00,71.9,68.2,25.41,SE,128,6.0,11.0,88,0.01,,---,0.10,VWS V14.01,2013-06-26 23:22:00,
2013-06-26 19:27:00,71.9,68.2,25.41,SE,136,5.0,11.0,88,0.01,,---,0.10,VWS V14.01,2013-06-26 23:27:00,
2013-06-26 19:32:00,71.8,68.1,25.41,SE,128,5.0,7.0,88,0.00,,---,0.10,VWS V14.01,2013-06-26 23:32:00,
2013-06-26 19:37:00,71.5,67.8,25.41,ESE,119,4.0,7.0,88,0.00,,---,0.10,VWS V14.01,2013-06-26 23:37:00,
2013-06-26 19:42:00,71.4,67.7,25.41,ESE,118,4.0,7.0,88,0.00,,---,0.10,VWS V14.01,2013-06-26 23:42:00,
2013-06-26 19:47:00,71.3,67.2,25.41,ESE,106,5.0,7.0,87,0.00,,---,0.10,VWS V14.01,2013-06-26 23:47:00,
2013-06-26 19:52:00,71.4,67.7,25.41,ESE,106,2.0,7.0,88,0.00,,---,0.10,VWS V14.01,2013-06-26 23:52:00,
2013-06-26 19:57:00,71.4,67.3,25.41,ESE,107,4.0,7.0,87,0.00,,---,0.10,VWS V14.01,2013-06-26 23:57:00,
2013-06-26 20:02:00,71.3,67.2,25.41,ESE,117,3.0,5.0,87,0.00,,---,0.10,VWS V14.01,2013-06-27 00:02:00,
2013-06-26 20:07:00,71.3,67.6,25.41,ESE,117,2.0,5.0,88,0.00,,---,0.10,VWS V14.01,2013-06-27 00:07:00,
2013-06-26 20:12:00,71.2,67.5,25.41,ESE,117,5.0,5.0,88,0.00,,---,0.10,VWS V14.01,2013-06-27 00:12:00,
2013-06-26 20:17:00,71.2,67.5,25.41,ESE,117,0.0,5.0,88,0.00,,---,0.10,VWS V14.01,2013-06-27 00:17:00,
2013-06-26 20:22:00,71.3,67.6,25.41,ESE,117,2.0,5.0,88,0.00,,---,0.10,VWS V14.01,2013-06-27 00:22:00,
2013-06-26 20:27:00,71.3,67.6,25.41,ESE,117,1.0,5.0,88,0.00,,---,0.10,VWS V14.01,2013-06-27 00:27:00,
2013-06-26 20:32:00,71.3,67.6,25.41,ESE,117,0.0,1.0,88,0.00,,---,0.10,VWS V14.01,2013-06-27 00:32:00,
2013-06-26 20:37:00,71.2,67.5,25.41,ESE,117,0.0,4.0,88,0.00,,---,0.10,VWS V14.01,2013-06-27 00:37:00,
2013-06-26 20:42:00,71.3,67.9,25.41,ESE,117,1.0,4.0,89,0.00,,---,0.10,VWS V14.01,2013-06-27 00:42:00,
2013-06-26 20:47:00,71.3,67.9,25.41,ESE,117,2.0,4.0,89,0.00,,---,0.10,VWS V14.01,2013-06-27 00:47:00,
2013-06-26 20:52:00,71.2,67.8,25.41,ESE,117,2.0,4.0,89,0.00,,---,0.10,VWS V14.01,2013-06-27 00:52:00,
2013-06-26 20:57:00,71.2,67.8,25.41,ESE,117,2.0,5.0,89,0.00,,---,0.10,VWS V14.01,2013-06-27 00:57:00,
2013-06-26 21:02:00,71.1,67.7,25.41,ESE,117,4.0,4.0,89,0.00,,---,0.10,VWS V14.01,2013-06-27 01:02:00,
2013-06-26 21:07:00,71.1,68.0,25.41,ESE,117,1.0,5.0,90,0.00,,---,0.10,VWS V14.01,2013-06-27 01:07:00,
2013-06-26 21:12:00,71.0,67.9,25.41,ESE,117,0.0,5.0,90,0.00,,---,0.10,VWS V14.01,2013-06-27 01:12:00,
2013-06-26 21:17:00,70.9,67.8,25.41,ESE,117,1.0,5.0,90,0.00,,---,0.10,VWS V14.01,2013-06-27 01:17:00,
2013-06-26 21:22:00,70.9,67.8,25.41,ESE,117,1.0,5.0,90,0.00,,---,0.10,VWS V14.01,2013-06-27 01:22:00,
2013-06-26 21:27:00,70.8,68.1,28.97,ESE,117,1.0,5.0,91,0.00,,---,0.10,VWS V14.01,2013-06-27 01:27:00,
2013-06-26 21:32:00,70.8,68.1,28.97,ESE,117,2.0,3.0,91,0.00,,---,0.10,VWS V14.01,2013-06-27 01:32:00,
2013-06-26 21:37:00,70.6,67.8,28.97,ESE,117,2.0,4.0,91,0.00,,---,0.10,VWS V14.01,2013-06-27 01:37:00,
2013-06-26 21:42:00,70.5,67.8,28.97,ESE,117,0.0,5.0,91,0.00,,---,0.10,VWS V14.01,2013-06-27 01:42:00,
2013-06-26 21:47:00,70.5,67.8,28.97,ESE,117,0.0,5.0,91,0.00,,---,0.10,VWS V14.01,2013-06-27 01:47:00,
2013-06-26 21:52:00,70.4,67.7,28.97,ESE,117,0.0,5.0,91,0.00,,---,0.10,VWS V14.01,2013-06-27 01:52:00,
2013-06-26 21:57:00,70.5,67.8,28.97,ESE,117,0.0,5.0,91,0.00,,---,0.10,VWS V14.01,2013-06-27 01:57:00,
2013-06-26 22:02:00,70.5,67.8,28.97,ESE,117,0.0,0.0,91,0.00,,---,0.10,VWS V14.01,2013-06-27 02:02:00,
2013-06-26 22:07:00,70.4,67.7,28.97,ESE,117,0.0,0.0,91,0.00,,---,0.10,VWS V14.01,2013-06-27 02:07:00,
2013-06-26 22:12:00,70.4,67.7,28.97,ESE,117,0.0,1.0,91,0.00,,---,0.10,VWS V14.01,2013-06-27 02:12:00,
2013-06-26 22:17:00,70.3,67.6,28.97,ESE,117,2.0,3.0,91,0.00,,---,0.10,VWS V14.01,2013-06-27 02:17:00,
2013-06-26 22:22:00,70.3,67.6,28.97,ESE,117,0.0,3.0,91,0.00,,---,0.10,VWS V14.01,2013-06-27 02:22:00,
2013-06-26 22:27:00,70.3,67.9,28.97,ESE,117,0.0,3.0,92,0.00,,---,0.10,VWS V14.01,2013-06-27 02:27:00,
2013-06-26 22:32:00,70.4,68.0,28.97,ESE,117,2.0,4.0,92,0.00,,---,0.10,VWS V14.01,2013-06-27 02:32:00,
2013-06-26 22:37:00,70.5,68.1,28.97,ESE,117,0.0,4.0,92,0.00,,---,0.10,VWS V14.01,2013-06-27 02:37:00,
2013-06-26 22:42:00,70.4,68.0,28.97,ESE,117,0.0,4.0,92,0.00,,---,0.10,VWS V14.01,2013-06-27 02:42:00,
2013-06-26 22:47:00,70.4,68.0,28.97,ESE,117,0.0,4.0,92,0.00,,---,0.10,VWS V14.01,2013-06-27 02:47:00,
2013-06-26 22:52:00,70.6,68.2,28.97,ESE,117,0.0,4.0,92,0.00,,---,0.10,VWS V14.01,2013-06-27 02:52:00,
2013-06-26 22:57:00,70.6,68.2,28.97,ESE,117,0.0,4.0,92,0.00,,---,0.10,VWS V14.01,2013-06-27 02:57:00,
2013-06-26 23:02:00,70.5,68.4,28.97,ESE,117,0.0,1.0,93,0.00,,---,0.10,VWS V14.01,2013-06-27 03:02:00,
2013-06-26 23:07:00,70.5,68.4,28.97,ESE,117,3.0,3.0,93,0.00,,---,0.10,VWS V14.01,2013-06-27 03:07:00,
2013-06-26 23:12:00,70.5,68.4,28.97,ESE,117,3.0,4.0,93,0.00,,---,0.10,VWS V14.01,2013-06-27 03:12:00,
2013-06-26 23:17:00,70.5,68.4,28.97,ESE,117,1.0,4.0,93,0.00,,---,0.10,VWS V14.01,2013-06-27 03:17:00,
2013-06-26 23:22:00,70.5,68.4,28.97,ESE,117,4.0,4.0,93,0.00,,---,0.10,VWS V14.01,2013-06-27 03:22:00,
2013-06-26 23:27:00,70.5,68.4,17.60,ESE,117,4.0,4.0,93,0.00,,---,0.10,VWS V14.01,2013-06-27 03:27:00,
2013-06-26 23:32:00,70.5,68.7,17.60,ESE,117,2.0,4.0,94,0.00,,---,0.10,VWS V14.01,2013-06-27 03:32:00,
2013-06-26 23:37:00,70.4,68.6,25.69,ESE,117,4.0,5.0,94,0.00,,---,0.10,VWS V14.01,2013-06-27 03:37:00,
2013-06-26 23:42:00,70.5,68.7,25.69,ESE,117,3.0,5.0,94,0.00,,---,0.10,VWS V14.01,2013-06-27 03:42:00,
2013-06-26 23:47:00,70.5,68.7,25.69,ESE,117,4.0,5.0,94,0.00,,---,0.10,VWS V14.01,2013-06-27 03:47:00,
2013-06-26 23:52:00,70.5,68.7,25.69,ESE,117,3.0,6.0,94,0.00,,---,0.10,VWS V14.01,2013-06-27 03:52:00,
2013-06-26 23:57:00,70.4,68.3,25.69,ESE,117,3.0,6.0,93,0.00,,---,0.10,VWS V14.01,2013-06-27 03:57:00,